Alva, OK

11:22 PM CST on November 18, 2017 (GMT -0600)
Alva Regional

Weather History for KAVK - October, 2011

Change the Weather History Date:

Friday, October 14, 2011

  Actual Average Record
Temperature  
Mean Temperature 60 °F -  
Max Temperature 73 °F 79 °F 97 °F (1950)
Min Temperature 48 °F 50 °F 30 °F (1969)
Degree Days  
Heating Degree Days 4    
Growing Degree Days 10 (Base 50)    
Moisture  
Dew Point 44 °F    
Average Humidity 57    
Maximum Humidity 87    
Minimum Humidity 31    
Precipitation  
Precipitation 0.00 in - - ()
Sea Level Pressure  
Sea Level Pressure 29.95 in    
Wind  
Wind Speed 7 mph (ENE)    
Max Wind Speed 15 mph    
Max Gust Speed 20 mph    
Visibility 10 miles    
Events      
Averages and records for this station are not official NWS values.
T = Trace of Precipitation, MM = Missing Value Source: NWS Daily Summary

Daily Weather History Graph

Daily Weather History Graph

Search for Another Location

Airport or City:

Trip Planner

Search our weather history database for the weather conditions in past years. The results will help you decide how hot, cold, wet, or windy it might be!

Date:

Astronomy

Oct. 14, 2011 Rise Set
Actual Time 7:41 AM CDT 6:59 PM CDT
Civil Twilight 7:14 AM CDT 7:25 PM CDT
Nautical Twilight 6:44 AM CDT 7:55 PM CDT
Astronomical Twilight 6:14 AM CDT 8:25 PM CDT
Moon 8:20 PM CDT (10/14) 10:05 AM CDT (10/14)
Length of Visible Light 12h 10m
Length of Day
11h 18m
Waning Gibbous, 94% of the Moon is Illuminated
Oct 14
Waning Gibbous
Oct 19
Last Quarter
Oct 26
New
Nov 2
First Quarter
Nov 10
Full

Hourly Weather History & Observations

Time (CDT) Temp. Dew Point Humidity Pressure Visibility Wind Dir Wind Speed Gust Speed Precip Events Conditions
12:00 AM 53.6 °F 44.6 °F 72% 29.91 in 10.0 mi SSW 6.9 mph - N/A   Mostly Cloudy
12:20 AM 55.4 °F 41.0 °F 58% 29.91 in 10.0 mi SSW 6.9 mph - N/A   Mostly Cloudy
12:40 AM 53.6 °F 44.6 °F 72% 29.91 in 10.0 mi South 4.6 mph - N/A   Mostly Cloudy
1:00 AM 53.6 °F 41.0 °F 62% 29.91 in 10.0 mi South 6.9 mph - N/A   Scattered Clouds
1:20 AM 53.6 °F 42.8 °F 67% 29.91 in 10.0 mi SSW 8.1 mph - N/A   Mostly Cloudy
1:40 AM 53.6 °F 42.8 °F 67% 29.91 in 10.0 mi SSW 8.1 mph - N/A   Mostly Cloudy
2:00 AM 53.6 °F 44.6 °F 72% 29.91 in 10.0 mi SSW 8.1 mph - N/A   Mostly Cloudy
2:20 AM 51.8 °F 44.6 °F 76% 29.91 in 10.0 mi SSW 8.1 mph - N/A   Mostly Cloudy
2:40 AM 50.0 °F 44.6 °F 82% 29.91 in 10.0 mi SSW 8.1 mph - N/A   Mostly Cloudy
3:00 AM 51.8 °F 44.6 °F 76% 29.91 in 10.0 mi SW 9.2 mph - N/A   Mostly Cloudy
3:20 AM 53.6 °F 42.8 °F 67% 29.91 in 10.0 mi SSW 8.1 mph - N/A   Mostly Cloudy
3:40 AM 55.4 °F 42.8 °F 63% 29.91 in 10.0 mi SSW 9.2 mph - N/A   Mostly Cloudy
4:00 AM 53.6 °F 42.8 °F 67% 29.91 in 10.0 mi SSW 6.9 mph - N/A   Overcast
4:20 AM 53.6 °F 42.8 °F 67% 29.91 in 10.0 mi SSW 4.6 mph - N/A   Overcast
4:40 AM 51.8 °F 44.6 °F 76% 29.91 in 10.0 mi SW 4.6 mph - N/A   Overcast
5:00 AM 51.8 °F 42.8 °F 71% 29.91 in 10.0 mi SSW 4.6 mph - N/A   Overcast
5:20 AM 51.8 °F 42.8 °F 71% 29.91 in 10.0 mi West 3.5 mph - N/A   Overcast
5:40 AM 51.8 °F 42.8 °F 71% 29.92 in 10.0 mi Calm Calm - N/A   Mostly Cloudy
6:00 AM 51.8 °F 42.8 °F 71% 29.92 in 10.0 mi Calm Calm - N/A   Mostly Cloudy
6:20 AM 53.6 °F 41.0 °F 62% 29.92 in 10.0 mi Calm Calm - N/A   Mostly Cloudy
6:40 AM 51.8 °F 41.0 °F 67% 29.92 in 10.0 mi Calm Calm - N/A   Mostly Cloudy
7:00 AM 53.6 °F 41.0 °F 62% 29.93 in 10.0 mi Calm Calm - N/A   Partly Cloudy
7:20 AM 48.2 °F 44.6 °F 87% 29.94 in 10.0 mi North 10.4 mph - N/A   Clear
7:40 AM 48.2 °F 44.6 °F 87% 29.94 in 10.0 mi NNE 6.9 mph - N/A   Clear
8:00 AM 50.0 °F 44.6 °F 82% 29.95 in 10.0 mi NE 5.8 mph - N/A   Clear
8:20 AM 51.8 °F 44.6 °F 76% 29.96 in 10.0 mi NE 8.1 mph - N/A   Clear
8:40 AM 55.4 °F 44.6 °F 67% 29.97 in 10.0 mi NE 6.9 mph - N/A   Clear
9:00 AM 57.2 °F 44.6 °F 63% 29.98 in 10.0 mi NE 9.2 mph - N/A   Clear
9:20 AM 57.2 °F 44.6 °F 63% 29.98 in 10.0 mi ENE 9.2 mph - N/A   Clear
9:40 AM 59.0 °F 46.4 °F 63% 29.99 in 10.0 mi ENE 6.9 mph - N/A   Clear
10:00 AM 60.8 °F 46.4 °F 59% 29.99 in 10.0 mi ENE 8.1 mph - N/A   Clear
10:20 AM 62.6 °F 46.4 °F 55% 30.00 in 10.0 mi ENE 6.9 mph - N/A   Clear
10:40 AM 62.6 °F 48.2 °F 59% 30.00 in 10.0 mi ENE 8.1 mph - N/A   Clear
11:00 AM 64.4 °F 48.2 °F 56% 30.00 in 10.0 mi NE 9.2 mph - N/A   Clear
11:20 AM 64.4 °F 48.2 °F 56% 30.00 in 10.0 mi NE 10.4 mph - N/A   Clear
12:00 PM 68.0 °F 48.2 °F 49% 30.00 in 10.0 mi ENE 9.2 mph - N/A   Clear
12:40 PM 69.8 °F 48.2 °F 46% 29.99 in 10.0 mi ENE 6.9 mph - N/A   Clear
1:00 PM 71.6 °F 46.4 °F 41% 29.99 in 10.0 mi ENE 9.2 mph - N/A   Clear
1:20 PM 71.6 °F 48.2 °F 43% 29.97 in 9.0 mi NE 11.5 mph 16.1 mph N/A   Clear
2:00 PM 73.4 °F 46.4 °F 38% 29.96 in 10.0 mi NNE 10.4 mph - N/A   Clear
2:20 PM 73.4 °F 44.6 °F 36% 29.95 in 10.0 mi NE 8.1 mph - N/A   Clear
2:40 PM 73.4 °F 46.4 °F 38% 29.95 in 10.0 mi NE 12.7 mph - N/A   Clear
3:00 PM 73.4 °F 44.6 °F 36% 29.95 in 10.0 mi NE 9.2 mph - N/A   Clear
3:20 PM 73.4 °F 44.6 °F 36% 29.95 in 10.0 mi NE 11.5 mph - N/A   Clear
3:40 PM 73.4 °F 44.6 °F 36% 29.96 in 10.0 mi ENE 11.5 mph - N/A   Clear
4:00 PM 73.4 °F 44.6 °F 36% 29.96 in 10.0 mi NE 12.7 mph - N/A   Clear
4:20 PM 73.4 °F 44.6 °F 36% 29.96 in 10.0 mi NE 11.5 mph 17.3 mph N/A   Clear
4:40 PM 73.4 °F 42.8 °F 33% 29.96 in 10.0 mi ENE 10.4 mph - N/A   Clear
5:00 PM 73.4 °F 42.8 °F 33% 29.96 in 10.0 mi ENE 12.7 mph - N/A   Clear
5:20 PM 73.4 °F 42.8 °F 33% 29.96 in 10.0 mi ENE 11.5 mph - N/A   Clear
5:40 PM 73.4 °F 41.0 °F 31% 29.97 in 10.0 mi NE 11.5 mph - N/A   Clear
6:00 PM 71.6 °F 39.2 °F 31% 29.97 in 10.0 mi NE 15.0 mph 19.6 mph N/A   Clear
6:20 PM 69.8 °F 39.2 °F 33% 29.98 in 10.0 mi NE 12.7 mph - N/A   Clear
6:40 PM 68.0 °F 39.2 °F 35% 29.99 in 10.0 mi NE 9.2 mph - N/A   Clear
7:00 PM 66.2 °F 39.2 °F 37% 30.00 in 10.0 mi NE 10.4 mph - N/A   Clear
7:20 PM 64.4 °F 39.2 °F 40% 30.01 in 10.0 mi NE 10.4 mph - N/A   Clear
8:00 PM 62.6 °F 39.2 °F 42% 30.03 in 10.0 mi NE 10.4 mph - N/A   Clear
8:20 PM 60.8 °F 39.2 °F 45% 30.02 in 10.0 mi NE 8.1 mph - N/A   Clear
8:40 PM 59.0 °F 39.2 °F 48% 30.02 in 10.0 mi ENE 9.2 mph - N/A   Clear
9:00 PM 59.0 °F 39.2 °F 48% 30.04 in 10.0 mi NNE 10.4 mph - N/A   Clear
9:20 PM 59.0 °F 39.2 °F 48% 30.05 in 10.0 mi NNE 10.4 mph - N/A   Clear
9:40 PM 59.0 °F 39.2 °F 48% 30.06 in 10.0 mi NNE 10.4 mph - N/A   Clear
10:00 PM 59.0 °F 39.2 °F 48% 30.07 in 10.0 mi NNE 10.4 mph - N/A   Partly Cloudy
10:20 PM 57.2 °F 39.2 °F 51% 30.08 in 10.0 mi NNE 9.2 mph - N/A   Scattered Clouds
10:40 PM 57.2 °F 39.2 °F 51% 30.08 in 10.0 mi NE 9.2 mph - N/A   Mostly Cloudy
11:00 PM 55.4 °F 39.2 °F 54% 30.08 in 10.0 mi NE 9.2 mph - N/A   Scattered Clouds
11:20 PM 55.4 °F 39.2 °F 54% 30.09 in 10.0 mi NE 8.1 mph - N/A   Mostly Cloudy
11:40 PM 55.4 °F 39.2 °F 54% 30.09 in 10.0 mi NE 8.1 mph - N/A   Mostly Cloudy